Simultaneous Nadir Overpasses (SNOs) Predictions

Prediction of SNOs between AQUA and GOES-15 Satellite Orbit:

Table of predicted SNOs for the next 14.0 days since TLE Epoch: 10/4/2019
Index Date Time (AQUA) AQUA Lat,Lon GOES-15 Lat,Lon Distance(km) Time Diff (sec)
1 10/05/2019 10:19:09 0.91,-130.80 0.26,-127.75 346.79 80
2 10/07/2019 10:06:58 0.27,-127.85 0.26,-127.83 2.82 80
3 10/09/2019 09:54:47 -0.36,-124.90 0.26,-127.90 341.36 80
4 10/09/2019 22:16:12 -0.73,-130.09 -0.24,-127.86 254.70 80
5 10/11/2019 22:04:01 -0.08,-127.14 -0.24,-127.93 89.18 80
6 10/12/2019 10:25:17 1.13,-132.31 0.22,-128.01 488.20 80
7 10/13/2019 21:51:50 0.57,-124.19 -0.24,-128.00 432.84 80
8 10/14/2019 10:13:06 0.48,-129.36 0.23,-128.08 144.78 80
9 10/16/2019 10:00:55 -0.17,-126.41 0.23,-128.14 198.10 80
10 10/16/2019 22:22:19 -0.96,-131.59 -0.21,-128.09 398.59 80




NCC Satellite Simultaneous Nadir Overpasses (SNOs) Prediction Service
